Wind_Speed
3 4 4 1 3 4 1 3 1 7 3 5 9 3 5 5 2 2 9 22 24 23 21 19 17 14 12 11 12 13 13 11 11 11 11 11 9 8 8 7 6 6 5 6 8 9 9 9 9
1 2 1 1 4 3 1 3 9 8 8 9 10 5 4 1 2 6 24 19 22 21 20 18 16 14 13 12 12 12 11 9 8 9 10 10 9 9 8 8 8 8 8 7 8 7 8 9 10
3 3 1 4 2 1 3 2 5 9 10 8 2 5 2 1 3 21 21 21 22 20 18 17 15 13 12 12 12 11 10 7 7 8 7 8 8 9 9 9 8 8 7 8 7 9 8 8 9
3 2 4 4 2 2 2 2 6 11 8 7 6 4 4 3 14 10 21 23 21 18 16 14 13 13 12 12 10 10 8 6 6 8 8 9 10 10 11 10 9 9 10 10 10 9 8 8 9
5 3 4 3 0 3 3 3 4 6 7 9 2 2 5 12 10 16 19 19 18 17 16 14 13 13 11 10 9 9 8 8 7 9 9 9 9 9 10 9 9 9 9 10 9 8 7 6 7
3 2 3 3 2 3 3 4 2 5 8 4 4 5 2 8 12 16 18 17 15 16 16 13 12 12 11 10 8 8 9 8 8 9 8 9 10 9 9 8 8 8 8 7 7 6 6 5 6
3 3 2 2 1 4 1 2 2 6 3 2 8 3 4 11 18 17 16 15 15 14 13 13 11 10 9 7 6 8 11 9 9 11 10 9 8 8 9 8 8 7 7 6 6 5 5 5 5
1 3 1 3 4 4 2 0 4 3 2 7 6 6 5 17 20 19 16 15 15 14 12 11 11 10 8 8 8 12 13 10 9 9 10 10 8 8 8 8 8 7 7 5 5 5 6 6 6
4 3 2 3 4 2 4 1 4 3 10 2 5 2 5 21 22 21 19 19 17 11 11 11 10 9 9 7 9 14 14 10 9 10 11 10 9 8 8 7 7 6 5 5 4 4 4 8 6
3 2 3 1 3 2 6 1 4 3 7 3 2 3 16 22 23 22 20 19 16 12 10 10 9 8 7 7 10 15 13 11 9 9 11 10 10 8 7 6 5 5 4 3 1 4 6 7 10
3 2 1 3 5 5 7 2 4 10 3 6 9 18 24 22 22 19 18 15 13 12 11 10 10 9 9 10 11 13 14 11 11 12 11 9 8 8 8 7 5 3 2 1 3 1 4 9 11
2 4 1 3 4 3 4 2 5 5 1 3 9 18 22 22 23 20 17 14 14 13 9 10 10 10 12 13 12 15 11 11 14 11 11 9 9 8 6 4 5 6 7 1 4 6 4 2 3
2 1 3 5 5 5 5 2 2 9 11 6 15 20 22 20 19 18 15 12 14 13 13 11 10 12 14 15 15 14 11 13 12 10 9 9 7 4 4 4 4 2 1 1 3 7 3 4 4
2 4 2 2 5 3 6 4 1 2 15 16 19 22 21 20 17 17 16 15 14 13 13 10 11 14 16 15 14 15 12 13 10 9 9 8 5 4 3 2 2 5 4 3 1 8 1 3 2
2 2 2 3 4 2 4 4 4 9 18 21 22 23 21 20 19 17 15 14 14 14 14 12 12 13 18 15 14 15 12 12 11 10 9 8 4 4 3 3 2 4 4 4 1 5 5 8 3
3 2 1 3 7 1 7 4 5 9 18 18 20 21 23 21 21 18 17 14 14 15 16 14 13 13 17 17 16 14 12 11 11 11 7 7 5 4 4 3 2 3 2 4 3 2 3 9 4
4 2 2 1 10 4 2 4 7 9 18 21 21 23 24 22 22 21 19 16 14 14 17 17 14 15 17 18 15 13 12 13 14 13 8 7 8 6 6 3 2 3 3 2 2 2 3 1 2
3 2 4 4 5 5 4 8 6 10 9 15 21 25 27 25 24 20 19 19 17 15 16 17 15 16 17 18 16 13 13 14 16 12 7 5 8 8 4 5 7 7 6 4 3 4 5 5 4
1 3 5 2 5 6 8 6 10 11 12 18 22 16 27 28 25 21 19 19 17 17 19 19 18 19 19 20 17 15 14 13 14 10 7 7 6 6 6 5 8 9 9 7 5 5 8 5 3
4 1 6 1 1 3 1 11 9 9 10 21 23 20 23 27 25 22 21 20 17 17 20 21 22 21 20 19 18 14 14 13 11 10 8 9 7 5 5 8 9 10 10 8 6 5 6 5 4
4 4 3 2 3 2 3 8 6 6 17 18 19 22 25 26 26 23 22 21 18 18 21 23 24 22 21 18 19 17 14 17 13 11 8 9 9 7 7 7 4 5 9 8 7 5 5 5 3
4 7 7 4 1 1 1 4 6 3 6 9 20 24 24 26 27 27 24 23 20 18 18 21 23 23 19 19 21 18 14 14 11 10 7 9 8 7 7 7 5 5 6 5 5 4 3 1 1
7 7 5 3 1 4 2 1 6 3 5 7 15 25 25 26 25 29 27 23 19 17 18 19 21 23 22 21 21 19 17 15 13 10 11 11 10 10 8 7 8 5 5 5 4 4 3 4 2
2 6 7 5 4 2 3 3 6 3 6 4 8 24 26 24 23 25 27 24 21 18 17 19 21 23 24 23 23 22 19 17 15 14 10 12 10 11 10 9 8 7 6 5 5 5 4 5 5
6 6 4 3 3 5 3 3 9 6 7 5 10 23 27 27 24 25 28 26 24 21 18 18 22 24 25 24 24 24 21 19 19 15 15 12 11 12 13 11 10 7 4 5 7 5 4 5 6
6 8 6 5 3 4 1 5 5 4 8 3 5 19 23 24 26 24 24 27 25 22 20 19 19 22 25 26 27 26 24 23 22 19 16 14 12 10 11 10 10 7 6 4 7 10 7 6 6
5 4 5 6 3 3 3 6 8 1 3 5 7 14 20 23 23 25 25 26 25 24 23 21 19 19 21 24 26 27 27 26 23 20 18 15 14 13 13 13 12 11 11 7 7 12 8 6 7
6 7 4 2 1 3 4 5 5 2 4 5 5 10 15 19 22 24 26 25 25 25 24 25 22 19 18 21 24 24 26 26 24 22 20 18 16 16 16 14 13 12 13 13 11 10 11 9 6
2 1 6 5 4 5 1 6 6 7 7 8 11 14 9 11 18 24 23 22 23 25 24 25 26 22 22 22 21 22 23 24 25 25 24 22 20 19 19 19 19 18 16 17 15 15 14 13 10
3 7 6 5 4 2 3 6 4 7 7 7 10 14 10 6 9 15 20 21 20 20 22 22 26 27 24 20 24 23 23 23 24 25 26 25 25 24 23 21 20 19 16 16 17 17 16 14 10
Wind_Direction
106 38 20 21 57 70 62 92 6 330 345 351 149 135 133 60 120 200 152 160 161 156 155 154 157 166 157 148 149 147 145 150 159 164 168 168 170 169 169 172 171 176 169 156 140 152 154 160 162
208 331 49 113 80 90 329 77 45 33 102 57 82 84 49 79 110 143 146 149 160 156 156 156 156 166 163 154 156 153 155 157 162 169 173 169 166 176 172 167 162 158 155 155 155 150 150 151 154
84 9 286 81 60 159 132 110 64 343 320 341 90 71 69 91 143 138 153 152 159 161 160 160 163 168 165 161 160 159 166 158 152 146 146 160 168 170 159 155 154 153 156 163 158 140 147 144 151
358 339 59 82 135 233 276 68 21 349 14 60 97 62 71 59 126 137 146 151 160 163 164 165 169 167 170 167 169 172 173 164 151 147 138 132 132 139 139 153 160 152 148 147 149 146 140 145 150
7 26 49 12 299 195 219 313 331 320 307 305 172 141 96 138 121 142 146 153 161 160 159 162 165 160 158 158 164 172 178 163 149 147 145 141 141 141 138 140 143 145 142 143 147 144 151 160 165
21 45 31 334 295 336 328 330 302 295 298 136 108 108 148 179 163 146 147 153 159 158 155 160 163 160 166 170 175 177 182 165 155 158 141 137 143 147 146 142 145 147 142 149 142 140 144 157 183
123 87 234 308 244 348 251 12 116 225 150 151 146 84 154 164 172 158 150 156 160 157 163 161 163 170 175 188 189 177 181 151 146 139 140 154 150 155 146 159 153 143 145 142 134 140 156 160 174
150 95 184 250 181 233 141 223 187 202 146 148 179 159 182 176 174 162 157 161 160 158 172 179 173 188 190 175 174 177 168 152 150 135 151 140 146 146 145 149 156 147 137 142 150 170 179 180 196
188 65 269 229 170 187 149 327 84 166 143 131 192 210 214 163 169 166 165 162 161 175 191 191 191 192 172 163 171 180 169 153 146 150 154 156 144 136 134 137 154 156 146 164 160 198 213 211 222
139 123 257 126 172 172 148 113 350 136 154 85 97 209 163 167 176 176 176 173 179 187 184 191 187 166 175 171 181 178 168 155 147 143 143 147 136 134 123 118 115 124 139 138 229 248 254 242 239
165 194 301 340 180 166 132 89 357 141 243 230 181 161 165 177 184 189 193 192 185 185 184 179 172 172 179 180 170 167 162 157 154 150 148 147 131 124 116 120 116 120 104 127 25 40 245 252 236
166 35 83 145 147 133 86 49 8 195 138 281 196 167 173 185 193 200 207 203 193 189 183 174 175 172 176 179 161 158 155 153 149 155 155 147 132 118 112 121 92 89 84 107 242 337 287 354 236
63 158 78 140 144 140 111 141 269 253 240 203 167 182 186 193 203 207 212 208 191 188 176 170 175 166 173 167 166 166 161 156 155 169 171 156 140 126 108 104 74 80 50 45 352 343 334 292 313
358 64 134 86 160 111 123 299 324 319 185 174 181 192 200 203 205 212 219 207 203 190 177 178 173 171 169 165 168 171 166 166 162 174 187 175 163 159 123 130 53 36 50 30 87 34 181 294 354
27 279 186 139 142 244 202 322 203 165 172 180 192 199 209 214 217 220 222 220 207 200 193 182 175 184 178 172 172 173 175 180 180 181 182 191 186 193 119 116 90 55 51 57 209 89 34 206 207
12 15 0 153 144 288 167 253 207 176 182 192 200 208 217 221 225 228 230 228 217 208 202 190 183 181 180 181 176 180 176 188 192 188 185 197 198 177 155 123 91 37 79 56 86 102 26 162 150
18 263 297 262 187 122 230 266 209 184 198 205 211 220 221 228 230 231 233 234 232 212 204 196 187 180 181 179 183 185 191 191 189 192 204 225 209 191 201 204 287 337 359 25 4 351 359 53 224
292 248 256 250 176 161 203 260 258 200 211 216 219 223 230 230 235 230 231 234 237 221 212 203 200 184 184 183 182 195 196 190 189 200 188 201 209 205 214 224 252 283 306 311 326 302 315 321 298
189 202 243 251 182 158 219 242 253 224 211 236 238 238 232 234 233 234 230 234 230 219 214 206 203 192 189 189 191 193 205 197 193 189 196 207 206 214 230 249 255 277 293 313 276 307 315 327 335
204 48 266 205 144 184 329 260 244 226 228 228 234 230 223 225 224 223 225 227 227 215 212 210 204 201 202 202 202 199 206 203 208 209 211 208 210 217 239 254 258 265 282 294 284 305 317 323 323
250 192 252 321 89 78 360 288 247 232 217 234 233 226 221 218 218 218 214 217 223 216 212 209 203 202 208 208 202 201 204 210 211 216 217 209 225 244 244 247 246 274 278 279 282 290 295 306 347
255 207 241 126 268 261 243 279 293 298 238 205 218 212 208 214 224 224 216 215 218 219 214 208 205 204 204 204 199 203 207 207 210 220 234 222 229 246 252 240 242 286 277 272 280 261 276 249 221
239 133 203 105 360 357 3 357 270 21 277 234 216 212 208 214 227 225 219 218 218 217 214 211 205 207 208 207 206 212 220 213 216 224 227 236 243 248 260 247 255 275 295 243 259 236 239 242 221
53 71 54 46 47 317 276 177 283 220 218 263 201 213 211 210 222 227 222 218 220 220 218 216 210 206 207 211 215 217 222 220 222 229 238 243 243 236 251 262 261 265 298 234 228 220 241 238 231
80 65 358 348 353 227 278 151 250 268 253 237 205 201 210 213 216 219 219 219 220 220 221 218 216 211 210 214 218 221 223 225 230 241 245 244 251 259 249 259 265 266 281 240 223 215 242 244 243
165 154 161 218 208 267 338 239 254 219 312 219 264 201 204 209 216 222 223 223 223 223 223 224 217 216 214 217 221 223 227 232 236 241 244 244 252 254 244 257 255 254 264 261 252 231 240 262 245
166 157 190 98 13 43 263 293 310 134 47 100 141 178 194 208 217 224 224 224 229 233 228 228 225 219 218 223 226 230 232 234 239 240 246 248 246 244 249 260 258 259 251 268 266 237 240 237 242
160 156 80 345 138 282 305 287 241 261 214 180 163 188 197 210 221 229 233 233 233 237 237 232 232 231 232 231 232 236 237 237 240 240 245 247 250 253 255 259 252 258 257 254 250 232 233 243 251
141 147 58 117 122 156 239 269 215 214 200 190 191 188 190 208 220 226 234 239 242 242 242 239 239 241 238 240 241 245 245 246 245 246 249 253 254 256 257 262 262 258 265 256 246 244 243 243 259
206 170 139 127 225 108 148 274 222 223 230 240 198 190 185 221 235 228 232 240 244 248 248 246 242 242 246 247 243 247 248 249 250 251 253 254 257 259 258 262 264 261 257 241 245 247 254 244 257
Height
1510 1510 1509 1509 1518 1518 1526 1523 1517 1517 1515 1514 1515 1516 1518 1520 1520 1531 1522 1527 1531 1535 1537 1540 1543 1545 1549 1550 1551 1552 1553 1554 1555 1556 1559 1560 1561 1563 1563 1564 1564 1565 1565 1565 1566 1566 1567 1568 1568
1510 1510 1510 1509 1523 1529 1528 1516 1520 1518 1518 1517 1517 1518 1519 1522 1520 1521 1524 1528 1533 1536 1539 1542 1545 1547 1550 1552 1553 1554 1555 1556 1557 1559 1560 1561 1563 1564 1564 1565 1565 1565 1565 1566 1566 1567 1568 1569 1569
1511 1510 1510 1514 1525 1528 1527 1517 1517 1518 1517 1518 1519 1520 1520 1520 1521 1523 1526 1529 1534 1538 1541 1544 1546 1549 1551 1552 1554 1555 1556 1557 1559 1560 1561 1562 1563 1564 1565 1566 1565 1566 1566 1566 1567 1568 1569 1570 1570
1511 1511 1512 1520 1525 1521 1518 1515 1516 1516 1515 1517 1520 1522 1522 1522 1524 1525 1527 1531 1535 1539 1542 1545 1548 1549 1551 1554 1555 1556 1557 1558 1560 1561 1562 1564 1564 1565 1566 1566 1567 1567 1567 1568 1569 1569 1570 1570 1572
1512 1511 1519 1522 1519 1516 1515 1515 1516 1518 1518 1518 1520 1524 1525 1525 1526 1527 1530 1534 1537 1540 1543 1546 1549 1551 1552 1554 1556 1557 1558 1559 1561 1562 1564 1565 1565 1566 1566 1567 1569 1569 1569 1570 1571 1571 1572 1572 1572
1513 1514 1525 1529 1520 1515 1511 1514 1514 1515 1516 1518 1520 1524 1526 1526 1528 1530 1533 1536 1539 1541 1544 1548 1550 1551 1553 1554 1555 1557 1559 1560 1562 1563 1565 1565 1566 1567 1568 1569 1570 1571 1571 1573 1573 1573 1573 1573 1574
1513 1518 1524 1520 1520 1515 1513 1514 1514 1515 1516 1519 1520 1525 1525 1526 1529 1531 1534 1537 1539 1543 1545 1548 1551 1553 1554 1554 1556 1557 1558 1561 1563 1564 1563 1567 1567 1567 1569 1570 1570 1572 1572 1574 1575 1574 1572 1574 1574
1513 1515 1521 1520 1522 1521 1514 1516 1514 1515 1516 1518 1520 1522 1525 1525 1529 1533 1535 1537 1541 1544 1548 1550 1550 1552 1553 1554 1556 1557 1559 1561 1563 1563 1565 1567 1566 1568 1569 1570 1571 1573 1574 1575 1577 1575 1574 1574 1574
1513 1521 1526 1518 1520 1514 1514 1515 1513 1513 1515 1519 1519 1519 1521 1525 1529 1533 1536 1538 1542 1545 1547 1550 1551 1552 1554 1555 1555 1556 1559 1562 1564 1564 1566 1566 1567 1568 1569 1570 1571 1572 1573 1574 1575 1574 1574 1574 1575
1513 1522 1516 1512 1513 1513 1513 1515 1515 1516 1517 1518 1518 1519 1521 1526 1530 1532 1535 1537 1541 1543 1546 1548 1550 1552 1554 1554 1555 1557 1560 1562 1563 1565 1566 1567 1568 1569 1570 1571 1572 1572 1572 1573 1574 1574 1574 1573 1573
1512 1516 1511 1512 1512 1512 1512 1514 1515 1515 1517 1516 1517 1519 1523 1527 1530 1532 1535 1538 1540 1543 1546 1547 1549 1551 1553 1554 1556 1558 1561 1563 1564 1566 1566 1568 1570 1570 1570 1571 1572 1572 1573 1574 1573 1572 1572 1571 1571
1512 1511 1511 1513 1513 1513 1513 1515 1516 1515 1516 1516 1517 1520 1522 1526 1528 1530 1534 1537 1540 1542 1544 1547 1548 1551 1552 1554 1556 1559 1561 1564 1565 1567 1567 1569 1571 1571 1572 1572 1573 1573 1573 1572 1572 1571 1570 1569 1570
1511 1511 1512 1512 1512 1512 1512 1514 1516 1515 1515 1517 1519 1521 1523 1525 1528 1531 1534 1538 1540 1542 1544 1546 1549 1550 1552 1554 1556 1559 1562 1564 1565 1567 1568 1569 1571 1572 1572 1573 1573 1573 1573 1572 1571 1568 1568 1569 1568
1513 1513 1514 1513 1511 1512 1512 1514 1515 1512 1513 1517 1519 1521 1524 1526 1528 1531 1533 1536 1539 1542 1544 1546 1548 1550 1552 1554 1557 1560 1561 1564 1566 1567 1568 1570 1571 1572 1572 1573 1573 1572 1572 1571 1570 1569 1568 1568 1567
1515 1516 1512 1512 1513 1514 1514 1515 1515 1512 1513 1516 1519 1521 1523 1525 1528 1529 1532 1535 1539 1542 1544 1546 1548 1550 1552 1554 1556 1559 1562 1564 1565 1566 1568 1570 1572 1572 1572 1573 1573 1573 1572 1571 1570 1571 1567 1568 1568
1517 1517 1520 1512 1513 1515 1517 1522 1513 1513 1513 1516 1517 1520 1522 1524 1525 1528 1531 1534 1538 1541 1544 1546 1547 1549 1551 1554 1557 1559 1561 1563 1565 1566 1568 1570 1571 1572 1572 1573 1573 1572 1571 1571 1570 1570 1569 1568 1568
1523 1527 1523 1515 1511 1514 1519 1519 1510 1512 1513 1514 1517 1519 1519 1521 1523 1526 1529 1532 1536 1539 1542 1544 1546 1549 1551 1554 1556 1559 1561 1562 1564 1566 1568 1569 1570 1571 1571 1572 1572 1572 1572 1572 1571 1570 1569 1567 1567
1525 1526 1520 1518 1511 1512 1517 1517 1512 1511 1512 1513 1513 1515 1516 1517 1518 1523 1527 1530 1534 1537 1540 1543 1546 1548 1551 1553 1555 1557 1559 1561 1563 1565 1567 1568 1568 1569 1570 1571 1571 1572 1571 1572 1571 1570 1569 1567 1566
1516 1519 1515 1508 1505 1510 1512 1513 1509 1508 1509 1509 1510 1511 1512 1514 1518 1521 1525 1528 1532 1534 1537 1541 1544 1547 1549 1551 1553 1555 1557 1560 1562 1564 1566 1567 1568 1568 1569 1570 1570 1570 1570 1570 1570 1570 1568 1566 1565
1513 1516 1514 1508 1505 1510 1510 1508 1503 1502 1501 1502 1503 1506 1508 1511 1515 1519 1523 1525 1528 1531 1534 1538 1541 1545 1548 1550 1553 1555 1556 1559 1560 1563 1564 1566 1568 1568 1568 1569 1569 1569 1569 1569 1569 1569 1568 1567 1566
1512 1518 1513 1512 1509 1511 1513 1511 1500 1494 1494 1495 1498 1501 1505 1507 1511 1516 1519 1522 1525 1528 1531 1534 1539 1543 1546 1549 1551 1553 1555 1557 1559 1561 1563 1564 1566 1567 1568 1568 1568 1568 1568 1568 1568 1568 1568 1568 1567
1520 1505 1504 1512 1516 1524 1513 1532 1503 1495 1493 1491 1492 1496 1500 1504 1508 1512 1515 1519 1521 1525 1529 1532 1536 1540 1544 1547 1549 1551 1553 1556 1558 1560 1562 1563 1564 1565 1566 1566 1567 1567 1567 1567 1567 1567 1566 1568 1568
1506 1498 1505 1510 1518 1521 1524 1529 1500 1497 1496 1491 1487 1491 1496 1500 1503 1507 1511 1516 1520 1524 1526 1530 1534 1538 1541 1544 1547 1549 1551 1554 1557 1559 1560 1561 1562 1564 1564 1565 1566 1566 1565 1566 1566 1566 1567 1568 1567
1496 1506 1516 1522 1529 1540 1523 1522 1510 1500 1490 1483 1484 1487 1492 1496 1500 1505 1510 1515 1518 1522 1525 1528 1532 1536 1539 1542 1544 1546 1549 1552 1555 1557 1558 1559 1560 1561 1562 1563 1564 1564 1564 1564 1565 1566 1566 1567 1567
1503 1518 1548 1545 1547 1541 1526 1525 1506 1486 1481 1479 1480 1483 1488 1494 1498 1502 1506 1510 1515 1518 1521 1525 1529 1532 1536 1539 1541 1545 1548 1551 1553 1555 1557 1558 1558 1558 1560 1562 1562 1563 1563 1563 1564 1565 1566 1566 1567
1508 1515 1542 1545 1550 1536 1520 1525 1498 1478 1477 1477 1477 1479 1485 1491 1495 1498 1502 1507 1511 1514 1518 1522 1525 1529 1532 1535 1538 1541 1545 1548 1550 1552 1554 1555 1556 1557 1559 1560 1560 1561 1561 1562 1562 1563 1564 1565 1566
1503 1514 1502 1531 1536 1538 1527 1507 1485 1478 1480 1480 1479 1480 1483 1488 1492 1495 1499 1503 1508 1511 1515 1519 1522 1525 1529 1532 1535 1538 1541 1544 1547 1549 1551 1552 1554 1555 1557 1557 1558 1559 1560 1560 1560 1561 1562 1563 1564
1486 1490 1515 1527 1529 1537 1530 1521 1510 1484 1482 1482 1481 1480 1482 1486 1490 1493 1497 1500 1504 1508 1512 1515 1519 1522 1526 1529 1531 1534 1537 1540 1543 1546 1547 1550 1552 1553 1554 1555 1556 1557 1558 1558 1558 1559 1561 1561 1562
1493 1498 1509 1516 1526 1538 1541 1518 1486 1481 1477 1477 1478 1479 1480 1483 1486 1489 1493 1497 1500 1505 1508 1511 1515 1518 1522 1525 1527 1530 1532 1535 1538 1541 1544 1546 1548 1550 1551 1553 1554 1554 1555 1555 1555 1557 1558 1560 1560
1477 1485 1495 1519 1520 1534 1531 1516 1474 1474 1473 1472 1475 1477 1478 1481 1483 1486 1490 1493 1497 1500 1503 1507 1510 1514 1517 1520 1523 1525 1528 1531 1534 1536 1539 1541 1542 1545 1547 1549 1550 1550 1550 1551 1552 1554 1556 1557 1558